Time,TemperatureF,DewpointF,PressureIn,WindDirection,WindDirectionDegrees,WindSpeedMPH,WindSpeedGustMPH,Humidity,HourlyPrecipIn,Conditions,Clouds,dailyrainin,SoftwareType,DateUTC
2013-09-18 00:00:00,84.2,63.1,29.96,North,0,0.0,0.0,49,0.00,,,0.00,WUHU216HW,2013-09-18 05:00:00,
2013-09-18 00:05:00,84.2,63.1,29.96,North,0,0.0,0.0,49,0.00,,,0.00,WUHU216HW,2013-09-18 05:05:00,
2013-09-18 00:30:00,83.9,63.4,29.97,North,0,0.0,0.0,50,0.00,,,0.00,WUHU216HW,2013-09-18 05:30:00,
2013-09-18 00:31:00,83.9,63.4,29.97,North,0,0.0,0.0,50,0.00,,,0.00,WUHU216HW,2013-09-18 05:31:00,
2013-09-18 00:36:00,83.9,63.4,29.97,North,0,0.0,0.0,50,0.00,,,0.00,WUHU216HW,2013-09-18 05:36:00,
2013-09-18 01:00:00,83.3,63.4,29.97,North,0,0.0,0.0,51,0.00,,,0.00,WUHU216HW,2013-09-18 06:00:00,
2013-09-18 01:05:00,83.3,63.4,29.97,North,0,0.0,0.0,51,0.00,,,0.00,WUHU216HW,2013-09-18 06:05:00,
2013-09-18 01:30:00,82.8,63.4,29.97,North,0,0.0,0.0,52,0.00,,,0.00,WUHU216HW,2013-09-18 06:30:00,
2013-09-18 01:35:00,82.8,63.4,29.97,North,0,0.0,0.0,52,0.00,,,0.00,WUHU216HW,2013-09-18 06:35:00,
2013-09-18 02:00:00,82.3,63.8,29.97,North,0,0.0,0.0,54,0.00,,,0.00,WUHU216HW,2013-09-18 07:00:00,
2013-09-18 02:05:00,82.3,63.8,29.97,North,0,0.0,0.0,54,0.00,,,0.00,WUHU216HW,2013-09-18 07:05:00,
2013-09-18 02:30:00,81.9,64.1,29.96,North,0,0.0,0.0,55,0.00,,,0.00,WUHU216HW,2013-09-18 07:30:00,
2013-09-18 02:35:00,81.9,64.1,29.96,North,0,0.0,0.0,55,0.00,,,0.00,WUHU216HW,2013-09-18 07:35:00,
2013-09-18 03:00:00,82.1,65.3,29.96,North,0,0.0,0.0,57,0.00,,,0.00,WUHU216HW,2013-09-18 08:00:00,
2013-09-18 03:05:00,82.1,65.3,29.96,North,0,0.0,0.0,57,0.00,,,0.00,WUHU216HW,2013-09-18 08:05:00,
2013-09-18 03:30:00,82.3,65.4,29.95,North,0,0.0,0.0,57,0.00,,,0.00,WUHU216HW,2013-09-18 08:30:00,
2013-09-18 03:35:00,82.3,65.4,29.95,North,0,0.0,0.0,57,0.00,,,0.00,WUHU216HW,2013-09-18 08:35:00,
2013-09-18 04:00:00,81.9,66.2,29.95,North,0,0.0,0.0,59,0.00,,,0.00,WUHU216HW,2013-09-18 09:00:00,
2013-09-18 04:05:00,81.9,66.2,29.95,North,0,0.0,0.0,59,0.00,,,0.00,WUHU216HW,2013-09-18 09:05:00,
2013-09-18 04:30:00,81.5,66.3,29.94,North,0,0.0,0.0,60,0.00,,,0.00,WUHU216HW,2013-09-18 09:30:00,
2013-09-18 04:35:00,81.5,66.3,29.94,North,0,0.0,0.0,60,0.00,,,0.00,WUHU216HW,2013-09-18 09:35:00,
2013-09-18 05:00:00,81.2,66.9,29.94,North,0,0.0,0.0,62,0.00,,,0.00,WUHU216HW,2013-09-18 10:00:00,
2013-09-18 05:05:00,81.2,66.9,29.94,North,0,0.0,0.0,62,0.00,,,0.00,WUHU216HW,2013-09-18 10:05:00,
2013-09-18 05:30:00,80.6,67.3,29.94,North,0,0.0,0.0,64,0.00,,,0.00,WUHU216HW,2013-09-18 10:30:00,
2013-09-18 05:35:00,80.6,67.3,29.94,North,0,0.0,0.0,64,0.00,,,0.00,WUHU216HW,2013-09-18 10:35:00,
2013-09-18 06:00:00,80.6,67.8,29.95,North,0,0.0,0.0,65,0.00,,,0.00,WUHU216HW,2013-09-18 11:00:00,
2013-09-18 06:05:00,80.6,67.8,29.95,North,0,0.0,0.0,65,0.00,,,0.00,WUHU216HW,2013-09-18 11:05:00,
2013-09-18 06:30:00,80.5,67.6,29.96,North,0,0.0,0.0,65,0.00,,,0.00,WUHU216HW,2013-09-18 11:30:00,
2013-09-18 06:35:00,80.5,67.6,29.96,North,0,0.0,0.0,65,0.00,,,0.00,WUHU216HW,2013-09-18 11:35:00,
2013-09-18 07:00:00,79.9,67.5,29.96,North,0,0.0,0.0,66,0.00,,,0.00,WUHU216HW,2013-09-18 12:00:00,
2013-09-18 07:05:00,79.9,67.5,29.96,North,0,0.0,0.0,66,0.00,,,0.00,WUHU216HW,2013-09-18 12:05:00,
2013-09-18 07:30:00,79.6,68.5,29.96,North,0,0.0,0.0,69,0.00,,,0.00,WUHU216HW,2013-09-18 12:30:00,
2013-09-18 07:35:00,79.6,68.5,29.96,North,0,0.0,0.0,69,0.00,,,0.00,WUHU216HW,2013-09-18 12:35:00,
2013-09-18 08:00:00,79.6,68.0,29.97,North,0,0.0,0.0,68,0.00,,,0.00,WUHU216HW,2013-09-18 13:00:00,
2013-09-18 08:05:00,79.6,68.0,29.97,North,0,0.0,0.0,68,0.00,,,0.00,WUHU216HW,2013-09-18 13:05:00,
2013-09-18 08:30:00,79.9,68.9,29.98,North,0,0.0,0.0,69,0.00,,,0.00,WUHU216HW,2013-09-18 13:30:00,
2013-09-18 08:35:00,79.9,68.9,29.98,North,0,0.0,0.0,69,0.00,,,0.00,WUHU216HW,2013-09-18 13:35:00,
2013-09-18 09:00:00,81.0,69.5,29.99,North,0,0.0,0.0,68,0.00,,,0.00,WUHU216HW,2013-09-18 14:00:00,
2013-09-18 09:05:00,81.0,69.5,29.99,North,0,0.0,0.0,68,0.00,,,0.00,WUHU216HW,2013-09-18 14:05:00,
2013-09-18 09:30:00,82.1,69.9,29.99,North,0,0.0,0.0,67,0.00,,,0.00,WUHU216HW,2013-09-18 14:30:00,
2013-09-18 09:35:00,82.1,69.9,29.99,North,0,0.0,0.0,67,0.00,,,0.00,WUHU216HW,2013-09-18 14:35:00,
2013-09-18 10:00:00,83.5,70.5,30.00,North,0,0.0,0.0,65,0.00,,,0.00,WUHU216HW,2013-09-18 15:00:00,
2013-09-18 10:05:00,83.5,70.5,30.00,North,0,0.0,0.0,65,0.00,,,0.00,WUHU216HW,2013-09-18 15:05:00,
2013-09-18 10:30:00,85.7,71.2,30.01,North,0,0.0,0.0,62,0.00,,,0.00,WUHU216HW,2013-09-18 15:30:00,
2013-09-18 10:35:00,85.7,71.2,30.01,North,0,0.0,0.0,62,0.00,,,0.00,WUHU216HW,2013-09-18 15:35:00,
2013-09-18 11:00:00,86.9,69.8,30.00,North,0,0.0,0.0,57,0.00,,,0.00,WUHU216HW,2013-09-18 16:00:00,
2013-09-18 11:01:00,86.9,69.8,30.00,North,0,0.0,0.0,57,0.00,,,0.00,WUHU216HW,2013-09-18 16:01:00,
2013-09-18 11:06:00,86.9,69.8,30.00,North,0,0.0,0.0,57,0.00,,,0.00,WUHU216HW,2013-09-18 16:06:00,
2013-09-18 11:30:00,87.8,70.7,30.00,North,0,0.0,0.0,57,0.00,,,0.00,WUHU216HW,2013-09-18 16:30:00,
2013-09-18 11:35:00,87.8,70.7,30.00,North,0,0.0,0.0,57,0.00,,,0.00,WUHU216HW,2013-09-18 16:35:00,
2013-09-18 12:00:00,88.7,69.9,29.99,North,0,0.0,0.0,54,0.00,,,0.00,WUHU216HW,2013-09-18 17:00:00,
2013-09-18 12:05:00,88.7,69.9,29.99,North,0,0.0,0.0,54,0.00,,,0.00,WUHU216HW,2013-09-18 17:05:00,
2013-09-18 12:30:00,90.5,67.4,29.98,North,0,0.0,0.0,47,0.00,,,0.00,WUHU216HW,2013-09-18 17:30:00,
2013-09-18 12:35:00,90.5,67.4,29.98,North,0,0.0,0.0,47,0.00,,,0.00,WUHU216HW,2013-09-18 17:35:00,
2013-09-18 13:00:00,91.1,66.6,29.97,North,0,0.0,0.0,45,0.00,,,0.00,WUHU216HW,2013-09-18 18:00:00,
2013-09-18 13:05:00,91.1,66.6,29.97,North,0,0.0,0.0,45,0.00,,,0.00,WUHU216HW,2013-09-18 18:05:00,
2013-09-18 13:30:00,92.5,68.0,29.96,North,0,0.0,0.0,45,0.00,,,0.00,WUHU216HW,2013-09-18 18:30:00,
2013-09-18 13:35:00,92.5,68.0,29.96,North,0,0.0,0.0,45,0.00,,,0.00,WUHU216HW,2013-09-18 18:35:00,
2013-09-18 14:00:00,92.9,65.7,29.94,North,0,0.0,0.0,41,0.00,,,0.00,WUHU216HW,2013-09-18 19:00:00,
2013-09-18 14:05:00,92.9,65.7,29.94,North,0,0.0,0.0,41,0.00,,,0.00,WUHU216HW,2013-09-18 19:05:00,
2013-09-18 14:30:00,92.7,64.9,29.93,North,0,0.0,0.0,40,0.00,,,0.00,WUHU216HW,2013-09-18 19:30:00,
2013-09-18 14:35:00,92.7,64.9,29.93,North,0,0.0,0.0,40,0.00,,,0.00,WUHU216HW,2013-09-18 19:35:00,
2013-09-18 15:00:00,93.4,63.9,29.91,North,0,0.0,0.0,38,0.00,,,0.00,WUHU216HW,2013-09-18 20:00:00,
2013-09-18 15:05:00,93.4,63.9,29.91,North,0,0.0,0.0,38,0.00,,,0.00,WUHU216HW,2013-09-18 20:05:00,
2013-09-18 15:30:00,94.0,64.4,29.90,North,0,0.0,0.0,38,0.00,,,0.00,WUHU216HW,2013-09-18 20:30:00,
2013-09-18 15:35:00,94.0,64.4,29.90,North,0,0.0,0.0,38,0.00,,,0.00,WUHU216HW,2013-09-18 20:35:00,
2013-09-18 16:00:00,95.0,62.9,29.89,North,0,0.0,0.0,35,0.00,,,0.00,WUHU216HW,2013-09-18 21:00:00,
2013-09-18 16:05:00,95.0,62.9,29.89,North,0,0.0,0.0,35,0.00,,,0.00,WUHU216HW,2013-09-18 21:05:00,
2013-09-18 16:30:00,93.1,61.9,29.88,North,0,0.0,0.0,36,0.00,,,0.00,WUHU216HW,2013-09-18 21:30:00,
2013-09-18 16:35:00,93.1,61.9,29.88,North,0,0.0,0.0,36,0.00,,,0.00,WUHU216HW,2013-09-18 21:35:00,
2013-09-18 17:00:00,94.0,62.7,29.87,North,0,0.0,0.0,36,0.00,,,0.00,WUHU216HW,2013-09-18 22:00:00,
2013-09-18 17:05:00,94.0,62.7,29.87,North,0,0.0,0.0,36,0.00,,,0.00,WUHU216HW,2013-09-18 22:05:00,
2013-09-18 17:30:00,93.1,61.9,29.86,North,0,0.0,0.0,36,0.00,,,0.00,WUHU216HW,2013-09-18 22:30:00,
2013-09-18 17:35:00,93.1,61.9,29.86,North,0,0.0,0.0,36,0.00,,,0.00,WUHU216HW,2013-09-18 22:35:00,
2013-09-18 18:00:00,93.2,62.1,29.86,North,0,0.0,0.0,36,0.00,,,0.00,WUHU216HW,2013-09-18 23:00:00,
2013-09-18 18:05:00,93.2,62.1,29.86,North,0,0.0,0.0,36,0.00,,,0.00,WUHU216HW,2013-09-18 23:05:00,
2013-09-18 18:30:00,92.7,60.9,29.86,North,0,0.0,0.0,35,0.00,,,0.00,WUHU216HW,2013-09-18 23:30:00,
2013-09-18 18:35:00,92.7,60.9,29.86,North,0,0.0,0.0,35,0.00,,,0.00,WUHU216HW,2013-09-18 23:35:00,
2013-09-18 19:00:00,92.2,62.7,29.86,North,0,0.0,0.0,38,0.00,,,0.00,WUHU216HW,2013-09-19 00:00:00,
2013-09-18 19:05:00,92.2,62.7,29.86,North,0,0.0,0.0,38,0.00,,,0.00,WUHU216HW,2013-09-19 00:05:00,
2013-09-18 19:30:00,91.1,63.4,29.86,North,0,0.0,0.0,40,0.00,,,0.00,WUHU216HW,2013-09-19 00:30:00,
2013-09-18 19:35:00,91.1,63.4,29.86,North,0,0.0,0.0,40,0.00,,,0.00,WUHU216HW,2013-09-19 00:35:00,
2013-09-18 20:00:00,89.8,62.9,29.87,North,0,0.0,0.0,41,0.00,,,0.00,WUHU216HW,2013-09-19 01:00:00,
2013-09-18 20:05:00,89.8,62.9,29.87,North,0,0.0,0.0,41,0.00,,,0.00,WUHU216HW,2013-09-19 01:05:00,
2013-09-18 20:30:00,88.6,63.2,29.88,North,0,0.0,0.0,43,0.00,,,0.00,WUHU216HW,2013-09-19 01:30:00,
2013-09-18 20:35:00,88.6,63.2,29.88,North,0,0.0,0.0,43,0.00,,,0.00,WUHU216HW,2013-09-19 01:35:00,
2013-09-18 21:00:00,87.8,63.2,29.89,North,0,0.0,0.0,44,0.00,,,0.00,WUHU216HW,2013-09-19 02:00:00,
2013-09-18 21:05:00,87.8,63.2,29.89,North,0,0.0,0.0,44,0.00,,,0.00,WUHU216HW,2013-09-19 02:05:00,
2013-09-18 21:30:00,87.1,63.2,29.90,North,0,0.0,0.0,45,0.00,,,0.00,WUHU216HW,2013-09-19 02:30:00,
2013-09-18 21:35:00,87.1,63.2,29.90,North,0,0.0,0.0,45,0.00,,,0.00,WUHU216HW,2013-09-19 02:35:00,
2013-09-18 22:00:00,86.6,63.3,29.91,North,0,0.0,0.0,46,0.00,,,0.00,WUHU216HW,2013-09-19 03:00:00,
2013-09-18 22:05:00,86.6,63.3,29.91,North,0,0.0,0.0,46,0.00,,,0.00,WUHU216HW,2013-09-19 03:05:00,
2013-09-18 22:30:00,85.9,63.3,29.91,North,0,0.0,0.0,47,0.00,,,0.00,WUHU216HW,2013-09-19 03:30:00,
2013-09-18 22:35:00,85.9,63.3,29.91,North,0,0.0,0.0,47,0.00,,,0.00,WUHU216HW,2013-09-19 03:35:00,
2013-09-18 23:00:00,85.3,63.5,29.91,North,0,0.0,0.0,48,0.00,,,0.00,WUHU216HW,2013-09-19 04:00:00,
2013-09-18 23:01:00,85.3,63.5,29.91,North,0,0.0,0.0,48,0.00,,,0.00,WUHU216HW,2013-09-19 04:01:00,
2013-09-18 23:06:00,85.3,63.5,29.91,North,0,0.0,0.0,48,0.00,,,0.00,WUHU216HW,2013-09-19 04:06:00,
2013-09-18 23:08:00,85.3,63.5,29.91,North,0,0.0,0.0,48,0.00,,,0.00,WUHU216HW,2013-09-19 04:08:00,
2013-09-18 23:30:00,85.0,63.7,29.91,North,0,0.0,0.0,49,0.00,,,0.00,WUHU216HW,2013-09-19 04:30:00,
2013-09-18 23:35:00,85.0,63.7,29.91,North,0,0.0,0.0,49,0.00,,,0.00,WUHU216HW,2013-09-19 04:35:00,